MICROSAT-R DEB 1 44134U 19006V 21015.28049379 .00083569 29951-5 60889-3 0 9999 2 44134 96.0678 136.2314 0300092 313.6828 43.9896 15.31891625 96846 MICROSAT-R DEB 1 44381U 19006DC 21015.67945814 .00393248 31563-4 28120-2 0 9995 2 44381 94.5820 356.4984 0371553 38.7714 323.9567 15.17442995 88012 MICROSAT-R DEB 1 44383U 19006DE 21014.43686226 .00064420 17860-5 10113-2 0 9994 2 44383 96.1915 90.6342 0735941 205.4418 150.8778 14.25328197 85384 MICROSAT-R DEB 1 44463U 19006DM 20364.67382724 .04104942 14345-5 51048-2 0 9997 2 44463 95.7779 55.3497 0093009 249.0622 110.0687 15.99412080 77495